P/L 153 DEB, 19245

Orbit data source: Space-Track

P/L 153 DEB, 19245 is space debris in LEO originally from a launch on Wed, 31 May 1967 UTC launched from the Air Force Western Test Range (AFWTR). Debris objects in space refer to the collection of defunct objects orbiting the Earth. Examples of debris include non-operational satellites, rocket bodies, and fragments generated from explosions, collisions, or faulty payload assembly.

Loading next visibility...
Identifier
19245, 1967-053K
Orbit
LEO
Country
Flag of USUS
Related business
Manufacturer
Unknown
Mission
Spacecraft
Bus & Motor
Unknown
Mass
Unknown
Launch date (UTC)
1967-05-31 (59 years ago)
Launch vehicle
Unknown
Launch site
Air Force Western Test Range (AFWTR)
Object type
Payload
Rocket body
Debris
Shape & HBR
Unknown shape, 0.1 m
Radar Cross Section
Medium (>0.1 m² and <1 m²)

Expand to show TLE details & history
Last TLE update: 14 hours ago

TLE from 14 hours ago
0 P/L 153 DEB
1 19245U 67053K   26202.62078887  .00000317  00000-0  16578-3 0  9991
2 19245  69.9558 260.7565 0001897  64.3326  11.2436 14.23026655 35217
Epoch: 2026-07-21T14:53Z
TLE epoch observation values (Epoch: 2026-07-21T14:53:56.158Z)
Latitude
65.58733°
Longitude
150.97328°
Altitude
824.51 km
Speed
7.448 km/s
True Right ascension
20h 55m 22s
True Declination
65° 27' 32"
Sunlit
Object was in daylight at epoch
Visualization orbit readout
Latitude
Unknown
Longitude
Unknown
Altitude
Unknown
Speed
Unknown
Apparent Right ascension
Unknown
Apparent Declination
Unknown
Sunlit
N/A
Visualization observer readout
Local Sidereal Time
17:24:44
Azimuth
Unknown
Elevation
Unknown
Doppler factor
Unknown
Orbital elements
Apogee altitude
814.522 km
Perigee altitude
811.793 km
Semi-major axis
7,191.294 km
Eccentricity
0.00019
Inclination
69.9558°
RAAN
260.7565°
Arg. of periapsis
64.3326°
True anomaly
11.24784°
Mean anomaly
11.2436°
Eccentric anomaly
11.24572°
Mean motion
3.55904 °/min
Orbital period
101.15 mins
BSTAR
0.00016578
Loading maneuver chart data...
Computing Atmospheric mass density...
Loading historical data...
Loading historical data...
Loading historical data...
Loading historical data...
Loading historical data...
Loading historical data...
Loading historical data...

Documentation

Showing up to 5 results
|